Temperature
24 23 23 23 30 31 30 29 30 29 28 27 27 27 27 26 26 23 20 20 19 19 18 19 19 19 19 19 19 19 19 19 19 19 18 18 18 19 18 18 18 18 18 18 18 18 18 18 18
23 23 24 28 32 30 29 30 29 29 27 27 26 26 26 23 22 21 20 19 19 19 18 18 19 19 19 19 19 19 19 19 19 18 18 18 18 18 18 18 18 18 18 18 18 18 18 18 18
24 24 27 32 31 30 29 30 29 28 27 27 26 25 24 22 21 20 20 19 19 19 18 19 19 19 19 19 19 19 19 19 18 18 18 18 18 18 18 18 18 18 18 18 18 18 18 18 18
24 27 30 32 31 30 30 30 29 29 27 27 27 25 23 21 21 20 19 19 19 19 19 18 19 19 19 19 19 19 19 18 18 18 18 18 18 18 18 18 18 18 18 18 18 18 18 18 18
25 30 33 32 31 31 31 30 29 30 28 27 27 25 22 20 20 20 19 20 20 19 19 18 19 19 19 19 19 19 19 18 18 18 18 18 18 18 18 18 18 18 18 18 18 18 18 18 18
30 32 33 32 31 31 31 29 29 29 28 27 26 25 22 20 20 20 20 20 20 19 19 18 19 19 19 19 19 19 19 18 18 18 18 18 18 18 18 18 18 18 18 18 18 17 18 18 18
31 33 32 32 31 31 30 29 30 29 28 27 26 25 22 20 20 20 19 20 20 19 19 18 18 19 19 19 19 18 18 18 18 18 18 18 18 18 18 18 18 18 18 17 17 17 17 17 18
30 33 32 32 32 31 30 29 29 29 28 26 26 26 23 20 20 19 19 19 19 19 19 18 18 18 18 18 18 18 18 18 18 18 18 18 18 18 18 17 18 18 18 17 17 17 17 17 18
29 33 32 32 32 31 30 30 29 28 27 26 26 26 24 20 20 19 19 19 19 18 18 19 18 18 18 18 18 18 18 18 18 18 18 18 17 17 17 17 18 18 17 17 17 17 17 17 17
31 32 32 32 33 32 31 30 29 29 28 26 25 23 21 20 20 20 20 20 19 19 18 19 18 18 18 18 18 18 18 18 18 18 17 17 17 17 17 18 18 18 17 17 17 17 17 17 17
32 32 32 32 31 31 31 31 30 30 30 28 26 23 21 21 20 20 20 20 19 19 19 18 18 18 18 18 18 18 18 18 18 18 17 17 17 17 17 17 17 17 17 17 17 17 17 17 17
31 31 31 32 31 31 31 31 30 30 30 28 26 23 22 21 21 21 20 20 19 19 19 19 18 18 18 18 18 18 18 18 18 18 17 17 17 17 17 17 17 17 17 17 17 17 17 17 17
31 31 31 31 31 31 31 31 30 30 28 26 24 23 22 22 22 21 21 20 19 19 19 19 19 18 18 18 18 18 18 18 18 18 18 17 17 17 17 17 17 17 17 17 17 17 17 17 17
31 31 31 31 31 30 31 31 30 29 27 25 24 23 23 22 22 21 20 20 20 19 19 19 19 19 19 19 18 18 18 18 18 17 17 17 17 17 17 17 17 17 17 17 17 17 17 17 17
30 31 32 31 31 31 31 31 31 28 27 26 25 24 23 22 22 21 21 20 20 20 19 19 19 19 19 19 18 18 18 18 18 17 18 18 17 17 17 17 17 17 17 17 17 17 17 17 17
31 31 31 31 31 31 31 31 30 28 27 26 25 24 23 22 22 21 21 20 20 20 20 20 19 19 19 19 19 18 18 18 18 18 17 18 17 17 17 17 17 17 17 17 17 17 17 17 17
30 31 31 31 31 31 31 31 30 28 28 27 26 25 24 23 22 21 21 21 20 20 20 20 19 20 19 19 19 18 18 18 18 18 18 18 18 18 17 17 17 17 17 17 17 17 17 17 17
31 31 31 31 31 31 31 31 30 28 28 28 26 25 24 23 23 22 21 21 20 20 20 20 20 20 19 19 19 18 18 18 18 18 18 18 18 18 17 18 17 17 17 17 17 17 17 17 17
31 31 31 31 30 31 31 31 30 29 28 28 27 26 25 24 23 22 21 21 20 20 20 20 20 20 20 19 19 19 19 18 18 18 18 18 18 18 18 18 18 17 17 17 17 17 17 17 17
30 30 30 30 30 30 31 31 30 29 29 28 27 26 25 24 23 22 21 21 21 20 20 20 20 20 20 19 19 19 19 18 18 18 18 19 18 18 18 18 18 17 17 17 17 17 17 17 17
29 30 30 30 29 30 30 30 30 30 28 28 27 27 26 25 24 22 21 21 21 21 21 20 20 20 20 19 19 18 19 18 18 18 18 18 18 18 18 18 18 18 17 17 17 17 17 17 17
29 30 30 29 29 30 30 30 30 30 29 29 28 27 27 26 24 23 22 21 21 21 21 21 21 20 20 20 19 19 19 19 19 18 18 18 18 18 18 18 18 18 18 18 17 17 17 17 17
29 29 29 29 29 30 30 30 31 30 30 30 29 28 27 26 25 24 23 22 22 22 21 21 21 21 20 20 20 19 19 19 19 18 18 18 18 18 18 18 18 18 18 18 18 17 17 17 17
28 28 28 29 29 28 29 29 30 31 30 31 30 28 27 27 25 24 24 22 22 22 21 21 21 21 21 20 20 19 19 19 18 18 18 18 18 18 18 18 18 18 18 18 18 18 17 17 17
28 28 27 27 28 28 29 29 30 31 31 30 30 29 28 27 26 25 24 23 22 21 21 21 21 21 21 20 20 20 19 19 19 18 18 18 18 18 18 18 18 18 18 18 18 18 17 17 17
28 28 28 28 28 29 28 29 30 30 29 28 28 28 27 26 26 25 24 23 22 21 21 21 21 21 21 20 20 20 19 19 19 18 18 18 18 18 18 18 18 18 18 18 18 17 17 17 17
27 28 30 29 29 29 29 29 29 29 29 28 28 27 27 26 26 25 24 23 22 21 21 21 21 21 21 20 20 20 19 19 19 19 19 18 18 18 18 18 18 18 18 18 18 17 17 17 17
29 29 28 28 27 28 29 29 30 29 29 29 28 27 26 26 25 24 23 23 22 21 21 20 20 20 20 20 20 19 19 19 19 19 18 18 18 18 18 18 18 18 18 18 17 17 17 17 17
27 28 28 29 29 28 28 29 30 30 29 29 28 27 26 25 25 24 23 22 21 21 20 20 20 19 19 19 19 19 19 19 19 19 18 18 18 18 18 18 18 18 17 17 17 17 17 17 17
28 28 28 27 27 28 29 29 29 29 29 28 27 26 25 24 24 23 23 22 21 20 20 20 19 19 19 19 19 19 19 18 18 18 18 18 18 18 18 17 17 17 17 17 17 17 17 17 17
Wind_Speed
8 6 5 4 2 8 14 11 9 9 7 8 8 6 8 9 7 9 9 11 12 13 14 15 14 15 16 16 16 17 17 17 17 17 17 17 17 17 17 17 18 19 19 19 19 18 19 19 18
4 4 5 4 3 10 12 10 10 10 9 8 7 7 9 9 9 10 11 12 13 13 14 14 15 15 15 15 16 16 17 17 17 16 17 17 17 17 17 18 18 18 19 18 18 18 18 18 18
5 5 4 1 8 11 11 9 10 9 7 6 6 7 6 7 9 8 12 14 13 13 14 16 15 15 15 15 15 16 16 16 16 16 16 17 17 17 17 18 17 18 18 18 18 18 17 17 17
4 5 3 3 11 10 9 9 8 8 8 6 7 9 7 7 6 11 15 14 14 13 15 16 14 15 15 15 14 15 15 16 16 16 16 16 16 16 17 17 17 17 17 17 17 17 16 16 15
5 4 2 7 10 8 7 7 5 6 6 7 7 10 8 7 11 15 15 14 14 13 14 16 14 14 14 14 14 14 14 15 15 16 16 16 16 16 17 17 17 16 16 17 16 16 15 15 14
4 3 2 7 9 7 6 5 5 7 9 8 10 11 7 9 14 14 14 12 13 13 14 16 15 14 14 13 14 14 14 14 15 15 16 16 16 16 16 17 16 15 15 15 15 15 15 14 14
4 1 4 6 8 7 5 4 4 6 7 7 8 9 9 11 13 14 13 12 12 12 13 14 14 14 13 13 13 13 13 14 14 15 15 16 15 15 16 16 15 15 14 14 14 14 13 13 13
4 2 4 5 6 7 6 4 4 5 7 8 6 7 10 15 15 14 13 12 11 11 11 12 12 12 13 13 13 13 13 13 13 14 14 15 15 15 14 14 14 14 13 13 13 13 12 12 11
4 4 4 5 5 7 7 6 6 5 9 6 4 6 14 20 17 15 13 12 11 10 9 10 11 11 11 12 13 13 12 12 12 12 13 11 11 12 12 14 13 12 12 12 11 11 11 11 11
4 3 4 4 3 4 6 5 7 7 8 8 9 12 18 19 18 16 15 14 13 12 11 9 10 10 10 10 10 9 10 9 8 9 9 8 8 8 11 13 11 11 11 11 10 10 10 7 9
3 1 3 3 1 1 5 5 6 6 5 7 12 18 20 19 17 16 14 13 13 12 11 10 9 8 9 8 8 6 7 7 8 8 7 7 7 7 8 8 10 9 9 8 9 8 5 5 5
3 2 1 1 1 2 4 5 5 4 3 6 13 19 20 20 18 16 15 13 13 12 11 10 10 8 7 6 6 6 6 6 6 7 6 6 5 5 5 4 6 6 6 5 5 4 5 4 4
6 3 2 2 3 3 5 6 4 3 5 10 15 18 19 18 17 15 14 13 12 12 11 10 10 9 8 6 5 6 5 5 6 6 5 5 5 4 5 4 3 4 5 5 3 4 4 3 3
4 4 3 3 3 5 6 6 5 4 9 13 16 17 17 17 17 15 14 13 13 13 12 11 10 9 8 6 5 5 6 5 5 5 5 4 4 4 4 4 3 3 3 3 2 4 3 2 2
5 6 6 5 5 5 7 8 7 8 11 13 15 16 16 16 16 15 15 14 14 13 12 12 11 10 9 8 7 6 6 6 5 5 5 5 5 5 4 3 3 3 3 3 2 2 2 2 2
8 10 9 6 6 6 9 8 8 10 12 13 14 15 15 16 16 14 14 13 13 13 12 12 11 11 10 8 7 6 6 6 5 5 6 6 5 5 4 3 3 3 3 3 3 2 2 1 1
11 13 11 9 6 7 10 6 9 10 12 13 14 15 15 16 16 15 14 14 13 13 13 13 12 11 11 9 8 7 6 5 5 6 5 6 6 6 5 3 3 4 3 3 3 3 2 2 2
14 13 12 10 7 8 10 6 7 9 12 12 14 14 15 16 16 15 14 14 13 13 13 13 12 11 10 9 7 6 7 6 6 6 6 6 7 7 6 5 5 5 4 3 2 2 2 3 3
10 12 12 8 5 8 10 8 8 9 11 12 13 14 15 15 15 15 14 14 14 13 13 13 13 12 10 9 9 8 8 7 6 6 7 8 7 8 7 5 5 5 4 4 4 4 5 5 3
11 13 11 7 5 7 9 10 8 9 11 12 13 14 15 15 15 15 15 15 15 14 14 14 14 13 13 10 8 7 6 6 6 6 6 8 8 9 8 7 6 5 5 6 6 5 5 4 4
14 13 11 9 6 7 8 12 11 10 10 11 12 13 14 15 16 16 17 17 16 16 16 14 15 14 14 12 9 7 6 6 6 7 7 8 9 10 9 8 7 6 7 6 7 7 7 6 5
14 10 9 9 10 9 10 11 12 11 11 13 13 13 14 15 16 16 17 18 18 17 16 15 15 14 14 13 12 12 10 9 8 7 7 7 9 9 9 9 8 7 7 6 8 7 7 7 6
10 8 9 10 11 10 11 11 9 10 12 13 13 14 14 15 16 16 17 17 17 17 16 16 15 15 14 14 13 12 11 9 7 7 7 7 7 9 9 9 8 8 7 8 8 7 8 7 8
9 10 7 9 11 14 13 12 10 10 12 11 10 12 13 14 15 15 15 15 15 15 15 15 16 16 15 15 14 13 12 10 9 9 8 8 7 7 9 9 8 8 8 8 8 8 9 8 8
14 13 9 10 11 11 10 11 9 5 6 8 8 9 10 12 13 14 14 15 14 15 16 15 16 15 15 15 14 13 13 11 11 10 9 8 7 7 7 8 7 8 8 9 8 8 9 9 9
18 18 11 10 12 9 8 11 7 4 4 5 6 6 7 9 11 12 13 13 13 14 14 14 15 14 14 14 14 13 12 10 9 10 8 8 7 6 6 7 8 8 8 9 8 8 9 9 10
18 18 13 9 8 9 9 7 6 5 6 6 6 6 6 8 9 11 11 11 12 12 13 13 13 13 13 13 12 11 11 10 9 8 9 7 6 6 6 7 7 8 8 8 8 8 9 9 10
13 15 10 10 10 11 10 11 8 10 9 7 6 6 5 6 7 8 9 9 9 10 10 10 11 11 11 11 11 10 11 10 9 8 8 7 6 6 6 7 7 8 8 8 8 8 8 8 9
13 17 13 12 10 10 9 7 4 7 6 6 6 5 5 5 6 6 7 7 8 8 9 9 9 9 9 9 9 9 9 9 9 8 7 7 6 6 6 7 7 7 7 7 7 8 8 9 9
16 15 16 13 10 10 8 4 6 4 4 5 5 6 5 5 5 6 6 7 7 7 7 8 8 8 9 8 8 8 8 8 8 7 7 6 6 6 6 6 6 6 6 6 7 8 8 8 9
Wind_Direction
215 211 230 243 217 74 67 66 68 78 74 72 70 63 62 46 45 91 116 125 122 119 117 116 108 108 106 106 108 107 107 107 107 107 107 106 106 105 104 104 103 102 102 102 103 105 106 107 108
221 218 238 246 52 76 69 68 72 69 91 100 80 72 72 67 70 106 124 125 126 121 121 115 110 109 106 105 107 108 108 108 107 108 107 106 106 105 104 103 103 103 103 103 103 104 104 106 106
228 239 269 56 59 63 75 79 88 92 96 96 87 66 64 83 101 116 125 133 127 121 118 113 114 111 108 107 106 108 108 109 109 107 108 107 107 105 104 104 104 104 105 103 102 102 102 104 105
246 235 234 76 78 66 76 96 105 106 93 87 101 89 82 86 109 125 132 135 129 125 120 116 116 112 110 109 108 107 109 109 109 109 108 107 106 106 105 104 104 104 105 104 103 103 104 106 107
252 260 146 93 81 82 88 98 105 91 91 98 102 103 95 91 117 128 136 138 132 125 121 120 118 113 111 110 109 108 108 111 111 110 110 109 108 106 105 105 105 105 105 105 104 104 105 108 108
250 246 121 95 93 98 104 107 100 93 103 110 115 112 98 122 132 137 138 136 131 127 124 122 121 116 114 113 113 111 110 112 112 111 111 111 109 108 108 108 107 107 106 105 104 105 104 105 106
284 260 93 99 107 110 110 114 106 105 113 114 122 114 123 140 141 140 138 139 131 129 129 130 131 126 119 114 114 114 112 113 114 112 112 111 109 108 108 109 109 109 107 106 106 107 108 109 109
295 237 136 113 109 101 122 127 112 120 108 120 135 131 146 152 149 144 143 139 135 134 133 133 132 132 134 127 119 116 114 115 116 115 115 116 116 114 115 115 111 111 109 109 109 109 111 113 112
268 229 142 112 105 108 134 139 125 118 129 134 121 118 135 146 150 149 148 146 145 142 139 139 136 139 136 130 128 129 123 121 127 122 125 137 128 121 125 105 112 114 113 112 112 115 120 124 122
246 211 103 86 70 108 142 148 140 155 148 140 128 121 134 150 157 159 160 158 156 153 151 149 143 145 140 134 135 140 133 130 129 124 131 125 109 111 111 115 117 119 120 120 118 126 148 160 133
231 187 103 117 78 123 155 149 160 169 164 163 156 149 153 159 164 167 167 165 160 160 158 153 150 152 145 142 144 136 127 128 128 124 126 119 127 125 126 135 137 139 145 135 137 158 138 119 104
208 162 170 130 111 208 177 165 169 187 90 130 152 154 159 166 171 172 170 168 164 166 164 158 155 156 154 147 143 147 142 142 136 134 144 134 129 128 123 132 134 145 135 128 136 123 111 105 115
209 185 192 231 230 220 200 185 174 155 129 135 145 157 166 171 172 173 172 171 169 171 169 165 166 162 160 154 161 153 149 144 135 138 137 141 144 138 127 124 132 142 131 142 137 128 123 125 131
202 214 219 225 205 186 192 180 182 149 142 147 155 164 172 173 174 173 176 177 177 178 175 171 174 169 167 167 168 160 158 152 152 152 142 156 144 136 142 149 146 136 142 128 134 132 140 151 133
211 213 201 190 189 182 189 191 188 154 155 161 166 169 173 176 178 182 182 183 183 182 178 178 177 175 177 178 180 176 173 172 169 157 159 170 162 150 164 155 168 155 147 141 161 142 167 183 168
207 213 203 173 186 183 208 201 160 164 170 172 172 172 176 180 185 187 185 186 186 184 182 184 184 180 182 184 189 187 188 181 181 177 173 178 174 172 185 175 174 161 178 177 172 193 209 194 193
203 209 201 171 184 190 216 204 152 173 181 180 179 179 182 183 190 190 189 189 188 187 185 187 190 185 187 187 191 197 192 198 195 189 186 181 188 190 200 191 171 195 204 207 220 169 221 211 218
202 205 201 190 178 202 214 202 166 183 194 192 187 186 188 190 192 191 192 191 190 189 189 190 191 190 190 192 194 202 200 200 203 199 194 193 196 199 209 200 190 209 214 215 226 214 231 246 236
217 211 203 187 174 207 212 209 194 190 200 201 196 193 195 197 192 190 191 193 191 190 191 193 194 190 193 197 200 200 201 203 203 205 196 200 207 205 213 217 189 214 219 226 229 226 218 227 226
211 211 200 179 180 215 214 217 206 201 209 208 204 202 199 195 191 191 193 195 196 194 194 194 196 195 199 201 205 208 210 208 208 212 199 206 210 212 211 213 211 210 221 226 229 229 242 238 219
211 212 203 191 181 208 221 223 214 207 213 213 212 210 204 199 195 194 196 197 198 197 197 199 199 199 202 202 202 201 199 214 211 212 209 211 214 216 223 219 224 220 226 229 231 229 235 242 236
207 210 207 200 206 207 217 233 207 204 208 212 213 211 207 202 199 196 196 198 200 200 198 200 199 202 202 202 208 207 208 211 213 214 214 212 216 221 222 227 230 230 234 236 237 230 234 241 243
203 185 205 213 222 230 214 243 215 193 214 215 213 212 209 203 200 198 198 198 200 200 198 198 199 202 201 203 207 211 218 220 218 218 220 225 221 226 226 225 230 232 236 239 243 240 236 239 244
171 168 184 214 225 229 221 233 231 205 217 216 210 209 209 203 200 199 198 196 198 199 200 199 198 201 201 203 208 212 219 221 222 223 222 222 223 225 226 226 227 231 236 236 237 239 237 241 245
191 186 191 203 214 226 204 226 236 205 216 223 218 209 207 203 199 196 196 195 196 199 200 200 198 200 201 203 207 211 218 220 223 228 227 229 228 223 220 227 229 235 235 237 238 237 242 240 241
201 206 214 215 215 206 189 226 222 186 209 219 220 211 203 198 196 194 193 193 194 196 197 197 198 199 199 201 206 210 213 217 223 223 231 228 233 234 228 227 231 238 242 241 238 243 240 239 240
200 214 229 242 234 223 202 209 214 197 201 200 198 197 195 192 189 190 191 191 192 192 193 194 195 197 199 201 203 205 209 214 219 218 222 230 231 232 226 231 235 238 242 245 243 246 246 242 241
214 206 211 224 219 222 213 214 210 186 193 187 182 179 174 174 174 179 183 187 187 187 188 189 192 194 197 199 202 203 205 208 212 217 219 224 230 235 232 234 240 242 244 245 248 251 248 246 246
196 202 210 218 231 229 215 205 177 180 184 183 171 161 156 159 163 169 172 176 177 178 178 179 185 188 191 195 198 201 201 201 204 210 217 219 225 229 235 236 242 245 246 247 245 251 251 248 250
202 204 205 208 211 235 243 174 125 155 160 161 149 141 135 137 140 150 157 162 167 172 172 171 177 184 186 186 190 197 198 197 200 201 206 208 215 224 231 236 242 249 249 252 253 254 254 254 256
Height
1495 1494 1495 1496 1489 1487 1495 1496 1493 1496 1499 1504 1505 1505 1506 1510 1512 1525 1529 1529 1530 1531 1531 1532 1533 1533 1534 1535 1536 1536 1537 1538 1539 1540 1541 1542 1543 1544 1545 1546 1548 1548 1549 1550 1552 1553 1554 1555 1556
1497 1496 1497 1494 1485 1497 1502 1496 1498 1500 1505 1507 1508 1509 1511 1517 1521 1526 1528 1531 1533 1534 1535 1535 1535 1537 1537 1538 1539 1540 1541 1542 1543 1544 1545 1546 1547 1548 1549 1550 1551 1552 1553 1554 1555 1556 1557 1558 1559
1497 1497 1497 1486 1489 1497 1502 1499 1501 1504 1507 1508 1511 1513 1517 1523 1526 1528 1530 1532 1535 1536 1537 1537 1538 1540 1540 1541 1542 1543 1544 1545 1546 1547 1548 1549 1550 1551 1552 1553 1554 1555 1556 1557 1558 1559 1560 1561 1562
1500 1499 1494 1487 1495 1497 1496 1499 1502 1505 1508 1510 1511 1516 1522 1527 1529 1530 1532 1535 1537 1539 1541 1540 1541 1542 1543 1544 1545 1546 1547 1548 1549 1550 1551 1552 1553 1554 1555 1556 1557 1558 1559 1560 1561 1562 1563 1564 1565
1501 1495 1487 1491 1496 1497 1498 1501 1503 1503 1508 1511 1513 1518 1525 1530 1531 1533 1535 1538 1540 1542 1543 1543 1544 1545 1546 1547 1548 1549 1550 1551 1552 1553 1555 1555 1556 1557 1558 1559 1560 1562 1562 1563 1564 1565 1566 1567 1568
1499 1490 1489 1496 1498 1498 1500 1504 1504 1506 1510 1514 1516 1520 1528 1531 1533 1535 1537 1540 1542 1544 1545 1545 1546 1547 1549 1550 1551 1552 1553 1554 1555 1556 1558 1558 1559 1560 1561 1562 1563 1564 1565 1566 1567 1568 1569 1570 1570
1497 1488 1490 1493 1498 1499 1502 1505 1505 1507 1511 1514 1517 1521 1529 1533 1535 1537 1539 1542 1544 1546 1548 1548 1549 1550 1551 1553 1554 1555 1556 1557 1558 1559 1560 1561 1562 1563 1564 1565 1566 1567 1568 1569 1570 1571 1571 1572 1573
1499 1490 1491 1492 1496 1499 1503 1506 1508 1509 1513 1518 1519 1521 1528 1532 1535 1537 1540 1543 1545 1547 1549 1551 1552 1553 1555 1555 1556 1558 1559 1560 1561 1562 1563 1564 1565 1566 1567 1568 1569 1570 1571 1571 1572 1573 1574 1574 1575
1500 1492 1493 1493 1494 1498 1502 1505 1509 1512 1515 1518 1520 1522 1526 1531 1534 1538 1541 1544 1546 1548 1550 1553 1554 1555 1557 1559 1559 1560 1561 1562 1563 1564 1565 1567 1569 1569 1570 1570 1571 1572 1573 1574 1575 1575 1576 1577 1577
1498 1492 1493 1494 1494 1496 1501 1504 1507 1511 1513 1518 1522 1525 1527 1531 1535 1538 1541 1544 1546 1549 1551 1553 1555 1557 1559 1561 1561 1563 1564 1564 1566 1567 1568 1570 1570 1572 1573 1572 1573 1574 1575 1576 1577 1578 1578 1579 1580
1496 1493 1495 1497 1498 1499 1500 1503 1507 1507 1509 1514 1520 1524 1527 1531 1535 1539 1542 1545 1547 1549 1552 1554 1555 1558 1560 1562 1563 1565 1566 1566 1567 1568 1569 1571 1572 1574 1575 1575 1575 1576 1577 1579 1579 1580 1582 1582 1582
1498 1497 1498 1498 1500 1500 1501 1503 1506 1507 1510 1515 1519 1523 1527 1531 1535 1538 1542 1545 1547 1550 1552 1554 1556 1557 1560 1562 1564 1565 1567 1568 1569 1569 1571 1572 1574 1575 1576 1577 1578 1579 1580 1580 1581 1582 1583 1583 1584
1498 1497 1499 1500 1500 1501 1502 1503 1506 1509 1512 1516 1519 1524 1527 1531 1535 1539 1542 1545 1547 1549 1552 1554 1556 1558 1559 1561 1564 1566 1568 1569 1569 1570 1571 1573 1575 1576 1577 1578 1578 1580 1581 1582 1582 1583 1583 1584 1584
1497 1498 1498 1499 1499 1501 1502 1503 1506 1509 1513 1516 1520 1524 1528 1531 1535 1538 1541 1544 1547 1549 1551 1553 1556 1557 1559 1561 1563 1566 1568 1568 1570 1571 1572 1573 1575 1576 1577 1578 1579 1581 1582 1583 1583 1584 1584 1585 1585
1500 1498 1496 1497 1499 1500 1501 1503 1504 1509 1513 1516 1519 1523 1527 1531 1534 1537 1540 1543 1546 1549 1551 1553 1555 1557 1559 1562 1564 1566 1568 1569 1570 1571 1572 1573 1575 1576 1577 1579 1580 1581 1582 1582 1583 1584 1585 1585 1586
1497 1496 1496 1495 1497 1499 1501 1502 1503 1509 1512 1515 1518 1522 1526 1530 1533 1536 1539 1542 1545 1548 1550 1552 1555 1557 1559 1561 1563 1566 1568 1569 1570 1571 1572 1573 1574 1575 1577 1579 1581 1581 1582 1583 1583 1584 1585 1586 1586
1495 1495 1494 1496 1496 1496 1497 1497 1502 1508 1510 1513 1517 1520 1524 1528 1532 1535 1538 1541 1543 1546 1549 1551 1554 1556 1559 1561 1562 1564 1566 1568 1570 1571 1572 1573 1574 1575 1577 1578 1579 1580 1582 1583 1584 1584 1585 1586 1586
1493 1491 1493 1494 1495 1495 1495 1496 1501 1506 1508 1511 1515 1519 1522 1525 1529 1533 1536 1539 1542 1544 1547 1550 1552 1555 1557 1559 1561 1563 1565 1566 1568 1570 1570 1572 1573 1574 1576 1577 1578 1580 1581 1582 1583 1583 1583 1584 1585
1486 1488 1492 1493 1494 1495 1495 1497 1499 1504 1506 1508 1512 1516 1520 1523 1527 1531 1534 1537 1540 1542 1545 1547 1551 1553 1555 1558 1560 1562 1564 1565 1567 1568 1569 1570 1572 1573 1575 1577 1577 1578 1579 1580 1581 1582 1582 1583 1583
1490 1492 1493 1496 1496 1495 1496 1496 1496 1501 1503 1505 1509 1513 1517 1521 1525 1528 1531 1534 1537 1539 1542 1545 1548 1551 1553 1556 1558 1560 1562 1564 1566 1567 1568 1569 1570 1572 1573 1574 1575 1576 1577 1578 1579 1579 1580 1581 1582
1491 1491 1492 1496 1497 1495 1497 1499 1496 1497 1501 1504 1506 1510 1513 1517 1520 1524 1527 1530 1533 1536 1539 1542 1545 1548 1550 1553 1556 1558 1559 1562 1564 1565 1566 1567 1568 1570 1571 1572 1573 1574 1575 1576 1576 1577 1577 1579 1579
1493 1488 1491 1495 1499 1497 1498 1502 1492 1492 1496 1499 1502 1505 1508 1512 1516 1520 1523 1526 1529 1532 1536 1539 1541 1544 1547 1550 1553 1555 1557 1559 1561 1563 1564 1565 1566 1567 1568 1569 1570 1571 1572 1573 1574 1574 1575 1575 1576
1486 1490 1493 1494 1496 1496 1496 1500 1488 1488 1492 1492 1495 1500 1503 1508 1512 1515 1519 1522 1526 1529 1532 1535 1538 1541 1544 1546 1549 1552 1554 1557 1559 1560 1561 1562 1564 1565 1566 1567 1567 1568 1569 1570 1570 1571 1571 1572 1572
1489 1493 1495 1494 1494 1506 1496 1499 1493 1483 1485 1485 1490 1495 1499 1503 1508 1512 1516 1519 1522 1525 1528 1531 1533 1536 1540 1542 1545 1548 1550 1553 1555 1557 1558 1559 1561 1561 1562 1563 1563 1565 1565 1566 1566 1567 1567 1568 1568
1489 1494 1505 1509 1508 1502 1489 1497 1488 1478 1481 1484 1487 1491 1495 1499 1503 1508 1511 1515 1517 1521 1524 1526 1529 1532 1535 1538 1541 1544 1546 1549 1551 1553 1555 1556 1557 1558 1559 1560 1560 1561 1562 1562 1563 1563 1563 1563 1564
1485 1485 1494 1504 1503 1494 1496 1495 1481 1479 1483 1486 1488 1490 1493 1496 1500 1503 1507 1510 1513 1516 1519 1522 1525 1528 1531 1534 1536 1539 1542 1544 1547 1549 1551 1553 1554 1555 1556 1556 1557 1557 1558 1558 1558 1559 1559 1559 1559
1483 1481 1473 1484 1486 1491 1488 1485 1481 1480 1482 1485 1487 1489 1492 1494 1497 1501 1504 1507 1510 1513 1515 1518 1521 1524 1527 1529 1532 1535 1537 1540 1542 1545 1547 1549 1550 1551 1552 1552 1553 1553 1554 1554 1554 1554 1554 1555 1555
1473 1475 1482 1487 1497 1499 1490 1488 1482 1479 1479 1481 1485 1487 1490 1493 1496 1499 1502 1505 1508 1510 1513 1515 1518 1521 1523 1526 1528 1531 1533 1535 1538 1541 1543 1544 1546 1547 1548 1548 1549 1549 1550 1550 1550 1550 1550 1550 1550
1478 1478 1477 1479 1480 1489 1494 1486 1469 1473 1476 1479 1483 1487 1490 1493 1495 1498 1501 1504 1506 1509 1511 1513 1515 1518 1521 1523 1525 1528 1530 1532 1534 1536 1538 1540 1542 1543 1544 1545 1545 1545 1546 1546 1546 1546 1546 1546 1546
1469 1471 1475 1484 1488 1483 1481 1481 1471 1474 1477 1480 1484 1488 1491 1493 1495 1497 1500 1503 1505 1507 1509 1511 1513 1516 1518 1520 1523 1525 1527 1529 1531 1533 1535 1537 1538 1540 1540 1541 1541 1542 1542 1542 1542 1542 1542 1542 1542